ProjectID,Date,Electric Generation,Electric Utility Import,Facility Electric Load
,YYYY-MM-DD,kW,kW,kW
203,2014-09-01,0.0,,0.0
203,2014-09-02,0.0,,0.0
203,2014-09-03,0.0,,0.0
203,2014-09-04,0.0,,0.0
203,2014-09-05,0.0,,0.0
203,2014-09-06,0.0,,0.0
203,2014-09-07,0.0,,0.0
203,2014-09-08,0.0,,0.0
203,2014-09-09,0.0,,0.0
203,2014-09-10,0.0,,0.0
203,2014-09-11,0.0,,0.0
203,2014-09-12,12.643708333333336,,12.643708333333336
203,2014-09-13,7.841000000000001,,7.841000000000001
203,2014-09-14,7.841000000000001,,7.841000000000001
203,2014-09-15,143.38449999999997,,143.38449999999997
203,2014-09-16,11.843125000000008,,11.843125000000008
203,2014-09-17,0.021000000000000005,,0.021000000000000005
203,2014-09-18,16.30095833333333,,16.30095833333333
203,2014-09-19,322.83437499999997,,322.83437499999997
203,2014-09-20,192.70833333333334,,192.70833333333334
203,2014-09-21,193.58333333333334,,193.58333333333334
203,2014-09-22,151.66666666666666,,151.66666666666666
203,2014-09-23,367.9166666666667,,367.9166666666667
203,2014-09-24,360.8333333333333,,360.8333333333333
203,2014-09-25,259.75,,259.75
203,2014-09-26,364.5833333333333,,364.5833333333333
203,2014-09-27,346.5,,346.5
203,2014-09-28,319.7083333333333,,319.7083333333333
203,2014-09-29,278.5,,278.5
203,2014-09-30,319.6750000000001,,319.6750000000001
203,2014-10-01,198.74166666666665,,198.74166666666665
203,2014-10-02,234.33333333333334,,234.33333333333334
203,2014-10-03,286.875,,286.875
203,2014-10-04,81.70833333333333,,81.70833333333333
203,2014-10-05,217.54166666666666,,217.54166666666666
203,2014-10-06,308.0833333333333,,308.0833333333333
203,2014-10-07,251.125,,251.125
203,2014-10-08,185.625,,185.625
203,2014-10-09,252.75,,252.75
203,2014-10-10,334.8333333333333,,334.8333333333333
203,2014-10-11,293.5,,293.5
203,2014-10-12,376.4583333333333,,376.4583333333333
203,2014-10-13,144.04166666666666,,144.04166666666666
203,2014-10-14,139.45833333333334,,139.45833333333334
203,2014-10-15,54.916666666666664,,54.916666666666664
203,2014-10-16,234.95833333333334,,234.95833333333334
203,2014-10-17,194.70833333333334,,194.70833333333334
203,2014-10-18,67.95833333333333,,67.95833333333333
203,2014-10-19,122.16666666666667,,122.16666666666667
203,2014-10-20,117.25,,117.25
203,2014-10-21,61.125,,61.125
203,2014-10-22,52.791666666666664,,52.791666666666664
203,2014-10-23,40.625,,40.625
203,2014-10-24,304.5416666666667,,304.5416666666667
203,2014-10-25,182.66666666666666,,182.66666666666666
203,2014-10-26,55.708333333333336,,55.708333333333336
203,2014-10-27,256.0,,256.0
203,2014-10-28,146.70833333333334,,146.70833333333334
203,2014-10-29,61.416666666666664,,61.416666666666664
203,2014-10-30,78.875,,78.875
203,2014-10-31,176.08333333333334,,176.08333333333334
203,2014-11-01,31.458333333333332,,31.458333333333332
203,2014-11-02,142.41666666666666,,142.41666666666666
203,2014-11-03,265.25,,265.25
203,2014-11-04,145.58333333333334,,145.58333333333334
203,2014-11-05,185.375,,185.375
203,2014-11-06,36.0,,36.0
203,2014-11-07,15.0,,15.0
203,2014-11-08,58.708333333333336,,58.708333333333336
203,2014-11-09,140.0,,140.0
203,2014-11-10,164.79166666666666,,164.79166666666666
203,2014-11-11,240.75,,240.75
203,2014-11-12,260.875,,260.875
203,2014-11-13,35.125,,35.125
203,2014-11-14,21.625,,21.625
203,2014-11-15,163.75,,163.75
203,2014-11-16,60.791666666666664,,60.791666666666664
203,2014-11-17,7.0,,7.0
203,2014-11-18,213.70833333333334,,213.70833333333334
203,2014-11-19,249.125,,249.125
203,2014-11-20,93.29166666666667,,93.29166666666667
203,2014-11-21,32.25,,32.25
203,2014-11-22,49.416666666666664,,49.416666666666664
203,2014-11-23,61.875,,61.875
203,2014-11-24,223.625,,223.625
203,2014-11-25,192.625,,192.625
203,2014-11-26,7.625,,7.625
203,2014-11-27,0.0,,0.0
203,2014-11-28,0.7916666666666666,,0.7916666666666666
203,2014-11-29,0.375,,0.375
203,2014-11-30,21.833333333333332,,21.833333333333332
203,2014-12-01,44.166666666666664,,44.166666666666664
203,2014-12-02,162.20833333333334,,162.20833333333334
203,2014-12-03,27.708333333333332,,27.708333333333332
203,2014-12-04,152.16666666666666,,152.16666666666666
203,2014-12-05,57.166666666666664,,57.166666666666664
203,2014-12-06,21.333333333333332,,21.333333333333332
203,2014-12-07,276.7916666666667,,276.7916666666667
203,2014-12-08,110.5,,110.5
203,2014-12-09,51.041666666666664,,51.041666666666664
203,2014-12-10,0.4583333333333333,,0.4583333333333333
203,2014-12-11,0.0,,0.0
203,2014-12-12,0.0,,0.0
203,2014-12-13,0.0,,0.0
203,2014-12-14,6.75,,6.75
203,2014-12-15,14.666666666666666,,14.666666666666666
203,2014-12-16,18.708333333333332,,18.708333333333332
203,2014-12-17,28.708333333333332,,28.708333333333332
203,2014-12-18,3.5833333333333335,,3.5833333333333335
203,2014-12-19,1.9166666666666667,,1.9166666666666667
203,2014-12-20,3.8333333333333335,,3.8333333333333335
203,2014-12-21,15.708333333333334,,15.708333333333334
203,2014-12-22,91.08333333333333,,91.08333333333333
203,2014-12-23,36.833333333333336,,36.833333333333336
203,2014-12-24,21.583333333333332,,21.583333333333332
203,2014-12-25,44.791666666666664,,44.791666666666664
203,2014-12-26,222.04166666666666,,222.04166666666666
203,2014-12-27,159.79166666666666,,159.79166666666666
203,2014-12-28,16.708333333333332,,16.708333333333332
203,2014-12-29,59.291666666666664,,59.291666666666664
203,2014-12-30,20.5,,20.5
203,2014-12-31,22.416666666666668,,22.416666666666668
203,2015-01-01,49.041666666666664,,49.041666666666664
203,2015-01-02,7.291666666666667,,7.291666666666667
203,2015-01-03,6.458333333333333,,6.458333333333333
203,2015-01-04,22.291666666666668,,22.291666666666668
203,2015-01-05,36.0,,36.0
203,2015-01-06,11.0,,11.0
203,2015-01-07,44.583333333333336,,44.583333333333336
203,2015-01-08,126.45833333333333,,126.45833333333333
203,2015-01-09,52.5,,52.5
203,2015-01-10,165.625,,165.625
203,2015-01-11,15.916666666666666,,15.916666666666666
203,2015-01-12,1.75,,1.75
203,2015-01-13,0.9166666666666666,,0.9166666666666666
203,2015-01-14,27.208333333333332,,27.208333333333332
203,2015-01-15,2.7083333333333335,,2.7083333333333335
203,2015-01-16,13.875,,13.875
203,2015-01-17,60.083333333333336,,60.083333333333336
203,2015-01-18,49.541666666666664,,49.541666666666664
203,2015-01-19,25.125,,25.125
203,2015-01-20,81.04166666666667,,81.04166666666667
203,2015-01-21,46.125,,46.125
203,2015-01-22,184.04166666666666,,184.04166666666666
203,2015-01-23,260.5416666666667,,260.5416666666667
203,2015-01-24,188.125,,188.125
203,2015-01-25,25.333333333333332,,25.333333333333332
203,2015-01-26,3.1666666666666665,,3.1666666666666665
203,2015-01-27,5.541666666666667,,5.541666666666667
203,2015-01-28,13.958333333333334,,13.958333333333334
203,2015-01-29,1.9166666666666667,,1.9166666666666667
203,2015-01-30,0.6666666666666666,,0.6666666666666666
203,2015-01-31,0.0,,0.0
203,2015-02-01,0.0,,0.0
203,2015-02-02,0.0,,0.0
203,2015-02-03,0.7916666666666666,,0.7916666666666666
203,2015-02-04,0.0,,0.0
203,2015-02-05,0.0,,0.0
203,2015-02-06,0.041666666666666664,,0.041666666666666664
203,2015-02-07,0.0,,0.0
203,2015-02-08,0.0,,0.0
203,2015-02-09,0.0,,0.0
203,2015-02-10,0.0,,0.0
203,2015-02-11,0.0,,0.0
203,2015-02-12,0.0,,0.0
203,2015-02-13,0.0,,0.0
203,2015-02-14,0.0,,0.0
203,2015-02-15,0.0,,0.0
203,2015-02-16,0.0,,0.0
203,2015-02-17,0.0,,0.0
203,2015-02-18,0.0,,0.0
203,2015-02-19,0.0,,0.0
203,2015-02-20,0.0,,0.0
203,2015-02-21,0.0,,0.0
203,2015-02-22,0.041666666666666664,,0.041666666666666664
203,2015-02-23,0.75,,0.75
203,2015-02-24,1.625,,1.625
203,2015-02-25,3.4166666666666665,,3.4166666666666665
203,2015-02-26,2.4583333333333335,,2.4583333333333335
203,2015-02-27,4.583333333333333,,4.583333333333333
203,2015-02-28,6.375,,6.375
203,2015-03-01,0.08333333333333333,,0.08333333333333333
203,2015-03-02,1.7916666666666667,,1.7916666666666667
203,2015-03-03,0.8333333333333334,,0.8333333333333334
203,2015-03-04,0.875,,0.875
203,2015-03-05,2.2083333333333335,,2.2083333333333335
203,2015-03-06,10.125,,10.125
203,2015-03-07,4.458333333333333,,4.458333333333333
203,2015-03-08,7.041666666666667,,7.041666666666667
203,2015-03-09,35.208333333333336,,35.208333333333336
203,2015-03-10,30.25,,30.25
203,2015-03-11,174.41666666666666,,174.41666666666666
203,2015-03-12,350.9166666666667,,350.9166666666667
203,2015-03-13,323.0,,323.0
203,2015-03-14,80.54166666666667,,80.54166666666667
203,2015-03-15,2.3333333333333335,,2.3333333333333335
203,2015-03-16,248.33333333333334,,248.33333333333334
203,2015-03-17,172.79166666666666,,172.79166666666666
203,2015-03-18,142.83333333333334,,142.83333333333334
203,2015-03-19,483.7916666666667,,483.7916666666667
203,2015-03-20,101.33333333333333,,101.33333333333333
203,2015-03-21,16.541666666666668,,16.541666666666668
203,2015-03-22,149.5,,149.5
203,2015-03-23,240.79166666666666,,240.79166666666666
203,2015-03-24,422.625,,422.625
203,2015-03-25,225.0,,225.0
203,2015-03-26,67.33333333333333,,67.33333333333333
203,2015-03-27,170.95833333333334,,170.95833333333334
203,2015-03-28,327.7083333333333,,327.7083333333333
203,2015-03-29,555.875,,555.875
203,2015-03-30,109.66666666666667,,109.66666666666667
203,2015-03-31,205.45833333333334,,205.45833333333334
203,2015-04-01,465.125,,465.125
203,2015-04-02,366.5833333333333,,366.5833333333333
203,2015-04-03,296.0833333333333,,296.0833333333333
203,2015-04-04,324.0,,324.0
203,2015-04-05,19.166666666666668,,19.166666666666668
203,2015-04-06,332.375,,332.375
203,2015-04-07,81.125,,81.125
203,2015-04-08,75.25,,75.25
203,2015-04-09,150.04166666666666,,150.04166666666666
203,2015-04-10,118.5,,118.5
203,2015-04-11,142.83333333333334,,142.83333333333334
203,2015-04-12,545.6666666666666,,545.6666666666666
203,2015-04-13,445.4583333333333,,445.4583333333333
203,2015-04-14,376.5,,376.5
203,2015-04-15,492.6666666666667,,492.6666666666667
203,2015-04-16,431.5416666666667,,431.5416666666667
203,2015-04-17,160.20833333333334,,160.20833333333334
203,2015-04-18,542.9166666666666,,542.9166666666666
203,2015-04-19,519.4166666666666,,519.4166666666666
203,2015-04-20,285.7916666666667,,285.7916666666667
203,2015-04-21,312.4166666666667,,312.4166666666667
203,2015-04-22,175.875,,175.875
203,2015-04-23,56.958333333333336,,56.958333333333336
203,2015-04-24,206.25,,206.25
203,2015-04-25,584.9583333333334,,584.9583333333334
203,2015-04-26,362.0833333333333,,362.0833333333333
203,2015-04-27,190.16666666666666,,190.16666666666666
203,2015-04-28,473.25,,473.25
203,2015-04-29,550.5,,550.5
203,2015-04-30,474.875,,474.875
203,2015-05-01,324.0833333333333,,324.0833333333333
203,2015-05-02,567.125,,567.125
203,2015-05-03,521.9166666666666,,521.9166666666666
203,2015-05-04,405.5833333333333,,405.5833333333333
203,2015-05-05,366.0,,366.0
203,2015-05-06,267.2916666666667,,267.2916666666667
203,2015-05-07,537.1666666666666,,537.1666666666666
203,2015-05-08,541.2083333333334,,541.2083333333334
203,2015-05-09,504.125,,504.125
203,2015-05-10,404.0416666666667,,404.0416666666667
203,2015-05-11,386.2916666666667,,386.2916666666667
203,2015-05-12,364.2916666666667,,364.2916666666667
203,2015-05-13,179.66666666666666,,179.66666666666666
203,2015-05-14,606.6666666666666,,606.6666666666666
203,2015-05-15,348.5,,348.5
203,2015-05-16,300.6666666666667,,300.6666666666667
203,2015-05-17,532.9583333333334,,532.9583333333334
203,2015-05-18,433.5416666666667,,433.5416666666667
203,2015-05-19,492.7916666666667,,492.7916666666667
203,2015-05-20,337.5,,337.5
203,2015-05-21,306.7916666666667,,306.7916666666667
203,2015-05-22,554.5416666666666,,554.5416666666666
203,2015-05-23,610.9583333333334,,610.9583333333334
203,2015-05-24,499.125,,499.125
203,2015-05-25,455.25,,455.25
203,2015-05-26,279.25,,279.25
203,2015-05-27,333.0416666666667,,333.0416666666667
203,2015-05-28,496.5,,496.5
203,2015-05-29,526.625,,526.625
203,2015-05-30,342.2083333333333,,342.2083333333333
203,2015-05-31,113.25,,113.25
203,2015-06-01,120.08333333333333,,120.08333333333333
203,2015-06-02,265.6666666666667,,265.6666666666667
203,2015-06-03,571.3333333333334,,571.3333333333334
203,2015-06-04,461.7083333333333,,461.7083333333333
203,2015-06-05,437.9166666666667,,437.9166666666667
203,2015-06-06,419.75,,419.75
203,2015-06-07,566.875,,566.875
203,2015-06-08,111.25,,111.25
203,2015-06-09,171.75,,171.75
203,2015-06-10,485.0833333333333,,485.0833333333333
203,2015-06-11,534.8333333333334,,534.8333333333334
203,2015-06-12,459.2083333333333,,459.2083333333333
203,2015-06-13,511.9166666666667,,511.9166666666667
203,2015-06-14,344.7916666666667,,344.7916666666667
203,2015-06-15,439.3333333333333,,439.3333333333333
203,2015-06-16,306.4583333333333,,306.4583333333333
203,2015-06-17,434.7916666666667,,434.7916666666667
203,2015-06-18,243.0,,243.0
203,2015-06-19,309.9583333333333,,309.9583333333333
203,2015-06-20,359.2916666666667,,359.2916666666667
203,2015-06-21,337.6666666666667,,337.6666666666667
203,2015-06-22,568.25,,568.25
203,2015-06-23,426.6666666666667,,426.6666666666667
203,2015-06-24,471.3333333333333,,471.3333333333333
203,2015-06-25,353.0416666666667,,353.0416666666667
203,2015-06-26,495.3333333333333,,495.3333333333333
203,2015-06-27,94.45833333333333,,94.45833333333333
203,2015-06-28,174.66666666666666,,174.66666666666666
203,2015-06-29,344.7083333333333,,344.7083333333333
203,2015-06-30,251.66666666666666,,251.66666666666666
203,2015-07-01,338.9583333333333,,338.9583333333333
203,2015-07-02,476.0833333333333,,476.0833333333333
203,2015-07-03,568.125,,568.125
203,2015-07-04,295.4166666666667,,295.4166666666667
203,2015-07-05,539.0,,539.0
203,2015-07-06,403.5416666666667,,403.5416666666667
203,2015-07-07,418.625,,418.625
203,2015-07-08,250.04166666666666,,250.04166666666666
203,2015-07-09,173.375,,173.375
203,2015-07-10,494.125,,494.125
203,2015-07-11,522.125,,522.125
203,2015-07-12,422.9166666666667,,422.9166666666667
203,2015-07-13,491.0,,491.0
203,2015-07-14,207.875,,207.875
203,2015-07-15,261.1666666666667,,261.1666666666667
203,2015-07-16,566.5,,566.5
203,2015-07-17,295.25,,295.25
203,2015-07-18,435.0416666666667,,435.0416666666667
203,2015-07-19,382.5,,382.5
203,2015-07-20,537.5,,537.5
203,2015-07-21,375.7916666666667,,375.7916666666667
203,2015-07-22,554.9583333333334,,554.9583333333334
203,2015-07-23,498.4583333333333,,498.4583333333333
203,2015-07-24,558.3333333333334,,558.3333333333334
203,2015-07-25,362.25,,362.25
203,2015-07-26,505.625,,505.625
203,2015-07-27,500.5416666666667,,500.5416666666667
203,2015-07-28,525.75,,525.75
203,2015-07-29,461.8333333333333,,461.8333333333333
203,2015-07-30,397.2083333333333,,397.2083333333333
203,2015-07-31,526.3333333333334,,526.3333333333334
203,2015-08-01,462.1666666666667,,462.1666666666667
203,2015-08-02,492.4583333333333,,492.4583333333333
203,2015-08-03,386.5416666666667,,386.5416666666667
203,2015-08-04,402.625,,402.625
203,2015-08-05,402.8333333333333,,402.8333333333333
203,2015-08-06,426.6666666666667,,426.6666666666667
203,2015-08-07,447.1666666666667,,447.1666666666667
203,2015-08-08,422.7083333333333,,422.7083333333333
203,2015-08-09,510.125,,510.125
203,2015-08-10,333.0833333333333,,333.0833333333333
203,2015-08-11,284.6666666666667,,284.6666666666667
203,2015-08-12,383.125,,383.125
203,2015-08-13,541.3333333333334,,541.3333333333334
203,2015-08-14,408.875,,408.875
203,2015-08-15,437.7083333333333,,437.7083333333333
203,2015-08-16,491.6666666666667,,491.6666666666667
203,2015-08-17,465.4166666666667,,465.4166666666667
203,2015-08-18,349.5833333333333,,349.5833333333333
203,2015-08-19,316.875,,316.875
203,2015-08-20,240.95833333333334,,240.95833333333334
203,2015-08-21,466.4583333333333,,466.4583333333333
203,2015-08-22,264.5416666666667,,264.5416666666667
203,2015-08-23,460.6666666666667,,460.6666666666667
203,2015-08-24,200.41666666666666,,200.41666666666666
203,2015-08-25,356.0,,356.0
203,2015-08-26,259.125,,259.125
203,2015-08-27,291.375,,291.375
203,2015-08-28,454.875,,454.875
203,2015-08-29,402.2083333333333,,402.2083333333333
203,2015-08-30,338.6666666666667,,338.6666666666667
203,2015-08-31,397.9583333333333,,397.9583333333333
203,2015-09-01,366.375,,366.375
203,2015-09-02,412.875,,412.875
203,2015-09-03,322.625,,322.625
203,2015-09-04,405.9583333333333,,405.9583333333333
203,2015-09-05,440.9166666666667,,440.9166666666667
203,2015-09-06,450.75,,450.75
203,2015-09-07,437.2083333333333,,437.2083333333333
203,2015-09-08,379.9166666666667,,379.9166666666667
203,2015-09-09,287.7916666666667,,287.7916666666667
203,2015-09-10,136.95833333333334,,136.95833333333334
203,2015-09-11,432.4166666666667,,432.4166666666667
203,2015-09-12,110.875,,110.875
203,2015-09-13,95.125,,95.125
203,2015-09-14,400.2083333333333,,400.2083333333333
203,2015-09-15,471.0,,471.0
203,2015-09-16,449.0,,449.0
203,2015-09-17,399.8333333333333,,399.8333333333333
203,2015-09-18,438.625,,438.625
203,2015-09-19,206.70833333333337,,206.70833333333337
203,2015-09-20,440.5416666666667,,440.5416666666667
203,2015-09-21,320.0833333333333,,320.0833333333333
203,2015-09-22,462.8333333333333,,462.8333333333333
203,2015-09-23,461.4166666666667,,461.4166666666667
203,2015-09-24,371.0416666666667,,371.0416666666667
203,2015-09-25,337.625,,337.625
203,2015-09-26,316.0416666666667,,316.0416666666667
203,2015-09-27,433.9583333333333,,433.9583333333333
203,2015-09-28,167.29166666666666,,167.29166666666666
203,2015-09-29,68.0,,68.0
203,2015-09-30,55.875,,55.875
203,2015-10-01,137.875,,137.875
203,2015-10-02,158.5,,158.5
203,2015-10-03,108.54166666666667,,108.54166666666667
203,2015-10-04,402.75,,402.75
203,2015-10-05,404.4583333333333,,404.4583333333333
203,2015-10-06,103.79166666666667,,103.79166666666667
203,2015-10-07,287.5833333333333,,287.5833333333333
203,2015-10-08,325.5,,325.5
203,2015-10-09,28.916666666666668,,28.916666666666668
203,2015-10-10,394.2083333333333,,394.2083333333333
203,2015-10-11,415.75,,415.75
203,2015-10-12,408.7916666666667,,408.7916666666667
203,2015-10-13,121.33333333333333,,121.33333333333333
203,2015-10-14,155.20833333333334,,155.20833333333334
203,2015-10-15,377.29162500000007,,377.29162500000007
203,2015-10-16,205.41666666666666,,205.41666666666666
203,2015-10-17,201.875,,201.875
203,2015-10-18,178.45833333333334,,178.45833333333334
203,2015-10-19,399.2916666666667,,399.2916666666667
203,2015-10-20,144.04166666666666,,144.04166666666666
203,2015-10-21,125.5,,125.5
203,2015-10-22,89.75,,89.75
203,2015-10-23,344.4166666666667,,344.4166666666667
203,2015-10-24,62.166666666666664,,62.166666666666664
203,2015-10-25,76.75,,76.75
203,2015-10-26,382.125,,382.125
203,2015-10-27,300.37500000000006,,300.37500000000006
203,2015-10-28,63.916666666666664,,63.916666666666664
203,2015-10-29,287.8333333333333,,287.8333333333333
203,2015-10-30,172.04166666666666,,172.04166666666666
203,2015-10-31,196.375,,196.375
203,2015-11-01,215.95833333333334,,215.95833333333334
203,2015-11-02,45.708333333333336,,45.708333333333336
203,2015-11-03,0.0,,0.0
203,2015-11-04,0.0,,0.0
203,2015-11-05,0.031166666666666662,,0.031166666666666662
203,2015-11-06,0.5107916666666666,,0.5107916666666666
203,2015-11-07,81.70833333333333,,81.70833333333333
203,2015-11-08,254.66666666666666,,254.66666666666666
203,2015-11-09,332.9166666666667,,332.9166666666667
203,2015-11-10,43.625,,43.625
203,2015-11-11,40.5,,40.5
203,2015-11-12,80.66666666666667,,80.66666666666667
203,2015-11-13,25.875,,25.875
203,2015-11-14,76.58333333333333,,76.58333333333333
203,2015-11-15,298.5833333333333,,298.5833333333333
203,2015-11-16,295.9166666666667,,295.9166666666667
203,2015-11-17,311.7916666666667,,311.7916666666667
203,2015-11-18,97.45833333333333,,97.45833333333333
203,2015-11-19,56.541666666666664,,56.541666666666664
203,2015-11-20,308.3333333333333,,308.3333333333333
203,2015-11-21,207.79166666666666,,207.79166666666666
203,2015-11-22,117.375,,117.375
203,2015-11-23,42.333333333333336,,42.333333333333336
203,2015-11-24,67.79166666666667,,67.79166666666667
203,2015-11-25,286.6666666666667,,286.6666666666667
203,2015-11-26,220.54166666666666,,220.54166666666666
203,2015-11-27,105.29166666666667,,105.29166666666667
203,2015-11-28,36.458333333333336,,36.458333333333336
203,2015-11-29,91.16666666666667,,91.16666666666667
203,2015-11-30,273.1666666666667,,273.1666666666667
203,2015-12-01,33.083333333333336,,33.083333333333336
203,2015-12-02,14.208333333333334,,14.208333333333334
203,2015-12-03,45.875,,45.875
203,2015-12-04,21.041666666666668,,21.041666666666668
203,2015-12-05,109.29166666666667,,109.29166666666667
203,2015-12-06,213.29166666666666,,213.29166666666666
203,2015-12-07,171.04166666666666,,171.04166666666666
203,2015-12-08,169.91666666666666,,169.91666666666666
203,2015-12-09,221.125,,221.125
203,2015-12-10,190.25,,190.25
203,2015-12-11,165.45833333333334,,165.45833333333334
203,2015-12-12,75.83333333333333,,75.83333333333333
203,2015-12-13,86.5,,86.5
203,2015-12-14,112.70833333333333,,112.70833333333333
203,2015-12-15,13.083333333333334,,13.083333333333334
203,2015-12-16,52.583333333333336,,52.583333333333336
203,2015-12-17,16.083333333333332,,16.083333333333332
203,2015-12-18,41.25,,41.25
203,2015-12-19,11.833333333333334,,11.833333333333334
203,2015-12-20,216.83333333333334,,216.83333333333334
203,2015-12-21,27.916666666666668,,27.916666666666668
203,2015-12-22,39.791666666666664,,39.791666666666664
203,2015-12-23,45.25,,45.25
203,2015-12-24,112.20833333333333,,112.20833333333333
203,2015-12-25,138.70833333333334,,138.70833333333334
203,2015-12-26,65.375,,65.375
203,2015-12-27,15.375,,15.375
203,2015-12-28,19.666666666666668,,19.666666666666668
203,2015-12-29,13.208333333333334,,13.208333333333334
203,2015-12-30,40.333333333333336,,40.333333333333336
203,2015-12-31,10.916666666666666,,10.916666666666666
203,2016-01-01,18.0,,18.0
203,2016-01-02,1.4583333333333333,,1.4583333333333333
203,2016-01-03,0.4583333333333333,,0.4583333333333333
203,2016-01-04,6.0,,6.0
203,2016-01-05,26.708333333333332,,26.708333333333332
203,2016-01-06,82.75,,82.75
203,2016-01-07,245.91666666666666,,245.91666666666666
203,2016-01-08,140.25,,140.25
203,2016-01-09,77.33333333333333,,77.33333333333333
203,2016-01-10,54.916666666666664,,54.916666666666664
203,2016-01-11,110.83333333333333,,110.83333333333333
203,2016-01-12,102.83333333333333,,102.83333333333333
203,2016-01-13,25.458333333333332,,25.458333333333332
203,2016-01-14,1.6666666666666667,,1.6666666666666667
203,2016-01-15,80.79166666666667,,80.79166666666667
203,2016-01-16,39.291666666666664,,39.291666666666664
203,2016-01-17,48.875,,48.875
203,2016-01-18,14.375,,14.375
203,2016-01-19,20.958333333333332,,20.958333333333332
203,2016-01-20,4.375,,4.375
203,2016-01-21,1.3333333333333333,,1.3333333333333333
203,2016-01-22,3.7916666666666665,,3.7916666666666665
203,2016-01-23,4.583333333333333,,4.583333333333333
203,2016-01-24,5.041666666666667,,5.041666666666667
203,2016-01-25,6.541666666666667,,6.541666666666667
203,2016-01-26,130.91666666666666,,130.91666666666666
203,2016-01-27,32.916666666666664,,32.916666666666664
203,2016-01-28,33.666666666666664,,33.666666666666664
203,2016-01-29,49.25,,49.25
203,2016-01-30,159.5,,159.5
203,2016-01-31,106.70833333333333,,106.70833333333333
203,2016-02-01,188.08333333333334,,188.08333333333334
203,2016-02-02,288.4583333333333,,288.4583333333333
203,2016-02-03,39.416666666666664,,39.416666666666664
203,2016-02-04,166.54166666666666,,166.54166666666666
203,2016-02-05,101.29166666666667,,101.29166666666667
203,2016-02-06,168.04166666666666,,168.04166666666666
203,2016-02-07,346.5416666666667,,346.5416666666667
203,2016-02-08,181.83333333333334,,181.83333333333334
203,2016-02-09,166.16666666666666,,166.16666666666666